Theta_e
311 311 311 310 310 310 311 311 311 311 311 312 312 313 313 313 313 314 315 316 317 317 317 317 317 317 317 317 316 315 314 312 311 312 313 313 314 314 313 313 313 313 312 312 312 311 310 308 306 305 304 302 300 298 298 297 296 296 296 296 296 296 296 295 295 294 294 293 293 293 293 293 293 293 293 292 292 292 292 292 292 292 292 292 292
311 311 311 310 310 310 310 311 311 311 310 311 312 312 312 313 313 314 314 315 315 315 316 316 315 315 315 315 315 314 312 311 311 312 313 313 313 313 312 312 311 310 309 309 309 308 307 305 304 303 302 300 298 297 297 296 296 296 296 295 295 296 296 296 295 294 294 293 294 293 293 293 292 292 292 292 292 292 292 292 292 292 292 292 292
310 310 310 311 310 310 310 310 311 311 311 311 311 312 313 313 313 313 313 313 313 313 313 313 312 312 312 313 313 312 311 311 312 312 312 313 312 312 312 311 308 306 306 306 306 306 305 303 302 300 299 298 297 297 296 296 295 295 295 295 295 296 296 296 295 294 294 293 293 293 293 293 292 292 292 292 292 292 292 292 292 292 292 292 292
310 310 310 311 311 311 310 310 311 311 311 312 312 312 312 312 312 312 312 312 311 310 310 310 310 309 310 310 310 310 310 310 311 311 312 311 311 311 311 308 305 304 305 305 305 304 302 301 300 298 298 297 296 296 295 295 295 295 295 295 295 295 295 295 295 294 294 293 293 293 293 293 293 292 292 292 292 292 292 292 292 292 292 292 292
310 310 310 311 311 311 311 311 311 311 311 311 311 312 311 311 311 310 310 309 309 309 310 310 310 310 310 310 309 309 309 310 311 311 311 311 311 310 307 304 303 304 304 304 303 302 300 299 298 297 297 296 296 296 295 295 295 295 295 295 295 295 295 294 294 294 294 294 294 294 293 293 292 292 292 292 292 292 291 291 291 291 291 291 291
310 310 310 311 311 311 311 311 311 311 311 311 311 311 311 310 310 309 308 309 309 310 311 311 311 312 311 310 309 309 309 310 310 310 310 310 309 306 304 302 303 303 302 302 301 299 299 298 297 296 296 296 296 296 295 295 295 295 295 294 294 294 294 294 294 294 294 294 294 293 293 292 292 291 291 291 291 291 291 291 291 291 291 291 291
311 310 310 310 310 311 311 310 311 311 311 311 311 311 311 310 309 309 309 310 310 311 311 311 312 312 311 310 309 310 310 310 310 310 310 308 305 303 302 302 302 301 301 300 298 298 297 297 296 296 296 296 296 296 295 295 295 294 294 294 294 294 293 293 293 294 294 294 293 293 292 292 292 291 291 291 291 291 291 291 291 291 291 291 291
311 310 310 310 309 309 309 309 310 312 312 312 311 311 310 310 310 310 310 310 310 310 311 311 312 312 311 311 310 310 310 310 310 309 307 304 303 302 302 301 301 300 299 298 297 297 296 296 295 295 295 295 295 295 295 295 295 294 294 294 294 293 293 293 293 293 293 293 293 292 292 292 291 291 291 291 291 291 291 291 291 291 291 291 291
311 310 310 309 308 308 309 309 310 311 312 312 312 311 310 310 310 310 310 310 310 310 309 310 311 311 311 311 311 310 310 309 308 306 304 303 302 302 301 300 300 299 298 297 296 296 295 295 295 295 294 294 294 294 294 294 294 294 294 294 293 293 293 293 293 293 293 293 292 292 292 292 291 291 291 291 291 291 291 291 291 291 290 290 290
311 311 310 308 308 307 308 309 310 311 312 312 312 311 310 310 310 309 309 309 309 309 308 308 309 309 309 310 309 308 307 306 304 303 303 302 302 301 300 299 298 298 297 297 296 295 295 294 294 294 294 294 293 294 294 294 294 294 294 294 293 293 293 293 292 293 292 292 292 292 292 292 291 291 291 291 291 291 291 290 290 290 290 290 290
310 310 310 308 307 307 308 309 309 310 310 311 311 311 310 310 309 309 309 309 309 308 307 306 306 306 306 306 306 305 304 303 302 302 302 301 301 300 299 298 298 297 297 296 296 296 295 294 294 294 294 294 294 294 294 294 294 294 293 293 293 292 292 292 292 292 292 292 292 292 292 292 291 291 291 290 290 290 290 290 290 290 290 289 289
309 309 310 309 308 307 308 308 309 309 309 310 311 310 310 310 309 309 308 308 308 307 306 305 304 304 303 303 303 303 302 302 301 301 301 300 299 299 298 298 297 297 296 296 296 296 295 295 294 295 295 295 295 295 294 294 294 293 293 293 292 292 292 292 292 292 292 292 292 292 292 291 291 291 290 290 290 290 290 290 290 290 289 289 289
309 309 309 309 309 308 308 308 308 308 309 310 310 310 310 310 309 308 308 308 307 307 306 305 303 303 303 302 302 301 301 301 300 300 300 299 298 298 298 298 297 296 296 296 296 295 295 295 295 295 296 295 295 295 294 294 293 293 293 292 292 292 292 292 292 292 292 292 292 292 292 291 291 291 290 290 290 290 290 290 290 289 289 289 289
309 309 308 309 309 308 308 308 308 308 308 310 310 310 310 309 308 308 308 307 307 306 306 304 303 302 302 301 301 301 300 300 299 299 298 297 297 298 297 297 296 296 296 296 295 295 295 296 296 296 296 296 295 294 294 293 293 293 292 292 292 292 292 292 292 292 292 292 292 292 291 291 291 291 291 290 290 290 290 290 290 289 289 289 289
309 309 308 308 308 308 308 307 308 308 309 309 310 310 309 308 308 308 307 307 306 306 305 304 303 302 301 300 300 300 300 299 299 298 297 297 297 297 297 296 296 296 295 295 295 295 295 295 296 296 296 296 295 294 293 293 293 292 292 292 292 292 292 292 292 292 292 292 291 291 291 291 291 291 291 290 290 290 290 290 290 289 289 289 289
309 310 309 308 308 308 308 307 307 308 308 309 309 308 308 307 307 307 307 306 306 305 304 303 302 301 300 300 300 300 300 299 298 297 297 297 297 297 296 296 295 295 295 294 294 294 295 295 295 296 296 295 294 294 293 293 292 292 292 292 292 292 292 292 292 292 292 291 291 291 291 291 291 291 291 290 290 290 290 290 289 289 288 289 289
309 310 310 309 308 308 308 307 307 308 308 308 308 307 307 306 306 306 306 306 305 304 303 302 301 300 300 300 300 299 299 298 297 297 297 297 297 296 296 295 295 294 294 294 294 294 294 295 295 295 295 294 294 293 293 293 292 292 292 292 291 292 292 291 291 291 291 291 291 291 291 291 291 291 291 290 290 290 289 289 289 288 288 288 288
309 310 310 309 308 308 308 307 307 307 307 307 307 307 306 306 306 306 306 305 305 304 303 301 300 300 300 300 299 299 298 298 298 297 297 297 296 296 295 295 294 294 294 294 294 294 294 295 295 295 294 294 293 293 293 293 292 292 292 292 292 292 292 292 291 291 291 291 291 291 291 291 291 291 291 291 290 289 289 288 288 287 287 287 287
309 310 311 310 308 307 307 307 307 306 306 306 307 306 306 306 306 306 305 305 304 303 302 301 300 300 299 299 299 299 298 298 298 298 297 296 295 295 294 294 294 294 294 294 294 294 294 294 294 294 294 293 293 292 292 292 292 292 292 292 292 292 292 292 292 292 291 291 291 291 291 291 291 291 291 290 289 289 288 287 287 286 286 286 286
308 310 311 310 308 306 306 306 306 306 305 305 306 305 305 306 306 305 305 304 303 302 301 300 300 299 299 298 298 298 298 298 298 297 296 296 295 294 294 293 293 294 293 293 294 294 293 293 294 294 293 292 292 292 292 292 292 292 292 292 292 292 291 292 292 292 292 291 291 291 291 291 291 291 290 289 289 288 288 287 286 286 286 286 286
307 308 309 309 308 306 305 305 306 306 305 305 305 305 305 306 306 305 305 304 302 301 300 300 299 299 298 298 297 297 297 297 297 296 295 295 294 294 294 293 294 294 294 293 294 294 294 294 294 293 293 292 292 292 292 292 291 291 291 291 291 291 291 291 291 291 291 291 291 290 290 290 290 290 290 289 288 288 287 287 286 286 285 285 285
304 304 306 307 307 306 305 305 305 305 305 304 304 305 305 306 305 305 304 303 302 301 299 299 299 298 297 297 297 297 297 296 296 295 295 294 294 294 294 294 294 294 294 294 294 294 294 294 293 293 292 292 292 291 291 291 291 291 291 291 290 290 291 291 291 291 291 290 290 290 290 290 290 289 289 289 288 288 287 286 286 285 285 285 285
304 303 303 304 304 304 304 304 303 303 304 304 304 305 305 305 305 304 304 303 302 300 299 298 298 297 296 297 297 296 296 295 294 294 294 294 294 293 293 294 294 294 294 294 294 294 294 294 293 293 292 292 291 291 291 290 290 290 290 290 290 290 290 290 290 290 290 290 290 290 290 289 289 289 289 288 288 287 287 286 285 285 285 285 285
303 303 303 303 303 303 303 303 302 302 303 304 304 304 305 305 305 304 303 303 301 300 298 298 297 296 296 297 296 296 295 294 294 294 294 293 293 293 293 293 294 294 293 293 294 294 294 294 293 293 292 291 291 290 290 290 290 290 290 290 289 289 290 290 290 290 290 290 289 289 289 289 289 289 288 288 287 287 286 285 285 284 284 284 284
303 303 303 303 302 302 302 302 302 302 302 304 305 305 304 305 305 303 302 302 301 299 298 297 296 296 297 297 296 295 294 293 293 293 293 293 293 293 293 293 293 293 293 293 293 293 293 293 293 292 292 291 290 290 289 289 289 289 289 289 289 289 290 290 289 289 289 289 289 289 289 289 288 288 288 287 287 286 286 285 285 284 284 284 284
302 303 303 303 302 302 302 301 301 301 300 302 305 306 306 305 304 303 302 301 300 299 298 297 296 296 297 297 296 295 294 293 293 293 293 293 293 293 293 293 293 292 292 292 292 292 293 293 292 291 291 290 290 289 289 289 289 289 289 289 289 289 289 289 289 289 289 289 289 289 289 288 288 288 288 287 287 286 286 286 285 285 285 284 284
302 302 303 303 302 302 302 301 300 300 300 300 302 305 307 305 304 304 303 301 299 298 297 297 296 296 297 296 295 294 294 293 293 293 293 292 293 293 293 293 292 292 291 291 292 292 292 291 291 290 290 289 289 289 289 288 288 289 289 289 289 289 289 289 289 288 288 288 288 288 289 288 288 288 288 288 288 287 287 287 286 286 285 285 284
302 302 302 302 302 302 301 301 300 300 301 300 300 303 305 305 304 304 305 303 300 297 297 296 296 296 297 296 295 294 294 293 293 293 293 292 293 293 292 292 291 291 291 292 292 292 291 290 290 290 289 289 289 288 288 288 288 288 288 288 288 288 288 288 288 288 288 288 288 289 289 289 289 289 288 288 288 288 287 287 287 287 286 285 285
301 301 301 301 301 301 301 301 301 300 301 301 300 301 305 306 305 305 306 306 303 300 299 298 297 297 297 297 297 295 294 294 294 293 293 293 293 293 292 292 291 291 292 293 292 291 289 289 289 289 289 288 288 288 288 288 288 288 288 288 288 288 287 288 288 288 288 289 289 289 289 289 289 288 288 288 288 288 287 287 287 287 286 285 285
300 300 301 300 300 300 300 300 300 300 300 300 300 299 301 303 304 305 306 307 305 303 302 301 300 299 298 298 299 298 297 296 294 293 293 293 293 293 293 292 292 292 293 293 291 289 289 289 289 289 289 289 288 288 288 289 289 288 288 288 287 287 287 288 288 288 289 289 289 289 289 289 289 288 288 288 288 287 287 287 287 286 286 286 286
300 300 300 300 300 300 299 299 299 299 299 300 299 298 297 298 299 300 302 304 304 302 301 302 302 301 299 299 299 298 297 296 295 294 293 293 292 293 293 292 292 293 293 292 290 289 288 288 288 289 289 289 289 289 289 289 289 289 288 287 287 287 287 288 288 288 289 289 289 289 289 289 289 288 288 288 287 287 287 286 286 286 285 285 285
301 300 300 300 299 299 299 299 298 298 298 298 298 298 297 296 296 296 296 298 299 298 298 298 299 299 300 300 300 298 296 294 294 294 293 293 293 293 293 292 292 292 292 290 289 289 288 288 289 289 289 289 289 289 289 289 289 288 288 287 287 287 288 288 288 288 289 289 289 289 289 289 288 288 287 287 286 286 286 285 285 285 285 285 285
301 300 300 299 299 299 299 299 299 298 298 298 298 297 297 297 296 295 295 295 295 296 295 295 295 296 297 297 298 298 297 296 294 293 293 293 293 293 293 293 292 291 290 289 288 288 289 289 288 288 289 289 290 289 289 289 289 288 287 287 287 288 288 288 288 288 288 289 288 288 288 288 288 287 286 286 285 285 285 284 284 284 284 284 284
300 300 300 299 299 299 299 299 299 299 299 298 298 297 298 298 298 296 295 294 294 294 294 293 294 295 295 294 295 296 297 296 295 293 293 293 293 293 293 292 291 289 289 288 288 288 288 288 287 288 289 289 289 289 289 289 288 288 287 287 288 288 288 288 287 287 288 288 288 288 288 287 287 286 285 285 284 283 283 283 283 284 283 283 283
300 300 300 299 299 299 299 299 299 299 298 298 297 297 297 297 297 296 295 295 294 294 293 293 293 293 294 294 294 294 295 295 294 294 294 293 293 293 292 291 289 288 288 288 288 288 288 288 288 289 289 288 288 288 288 288 288 288 287 287 288 288 288 287 287 286 286 286 286 286 286 286 285 285 284 283 283 282 282 283 283 283 282 282 281
299 299 299 299 299 299 299 299 299 299 298 298 297 297 296 296 295 295 294 294 293 293 292 292 292 292 292 293 293 293 294 294 293 294 295 294 293 292 291 290 289 289 289 289 288 288 288 288 288 288 288 288 288 288 288 288 288 287 287 287 287 287 286 286 286 285 285 285 285 285 284 284 284 284 283 282 282 282 282 282 282 282 281 280 279
298 299 299 299 299 299 299 298 298 297 297 296 296 295 295 294 294 293 292 292 292 292 292 291 291 291 291 291 292 292 292 292 293 294 296 295 293 291 290 289 289 290 290 290 289 288 288 288 289 288 288 288 288 288 287 287 287 287 286 286 286 286 285 285 285 284 284 284 283 283 283 283 283 282 282 281 281 281 281 281 281 280 280 278 278
297 298 298 298 298 298 298 297 296 296 295 295 294 294 293 293 293 292 292 291 291 292 292 291 291 291 291 291 291 291 292 292 293 294 293 292 291 290 289 289 290 290 290 289 289 289 290 290 290 289 288 288 287 287 287 286 286 286 286 285 285 285 285 285 284 284 283 283 283 283 283 283 282 282 281 281 281 280 280 280 280 279 278 277 276
296 296 296 296 296 296 296 295 295 294 293 293 293 292 292 292 292 291 291 291 291 291 291 290 290 291 291 291 291 291 292 293 293 292 290 289 289 289 289 289 289 289 289 290 290 291 291 290 289 289 288 287 287 286 286 285 285 285 285 285 285 285 284 284 284 283 283 283 282 282 282 282 281 281 280 280 280 280 280 279 278 278 277 276 276
294 294 294 294 294 294 293 293 293 292 292 292 291 291 291 291 290 290 290 290 290 290 290 290 290 290 290 291 291 292 292 292 291 290 290 289 289 289 289 290 290 290 290 291 291 291 290 289 288 287 287 286 286 285 285 285 284 284 284 285 285 284 284 284 283 283 282 282 282 282 281 281 281 280 280 279 279 279 278 278 277 276 276 275 275
293 293 292 292 292 292 292 291 291 291 290 290 290 290 289 289 289 289 289 289 289 289 289 289 289 289 289 290 291 291 292 291 290 290 290 289 289 290 290 290 290 291 291 291 291 290 289 287 286 286 286 285 285 285 284 284 284 284 284 284 284 284 283 283 283 282 282 281 281 281 280 280 279 279 279 279 278 278 277 277 276 275 275 274 274
292 291 291 290 290 290 290 290 289 289 289 289 289 288 288 288 288 288 288 288 288 288 288 288 288 288 288 289 289 290 290 290 290 290 290 290 290 290 290 291 291 291 291 291 290 288 287 286 285 285 285 284 284 284 284 283 283 283 283 283 283 283 282 282 281 281 280 280 280 279 279 279 278 277 277 277 277 276 276 275 275 274 274 273 273
290 290 289 289 288 288 288 288 288 288 288 288 287 287 287 287 287 287 287 287 287 287 287 287 287 287 287 288 289 289 290 290 290 290 290 290 290 291 291 291 291 291 290 289 288 287 286 285 284 284 284 284 283 283 283 282 282 282 282 282 282 282 281 281 280 279 279 278 278 278 277 277 276 276 276 276 275 275 274 274 274 273 273 273 272
290 289 288 288 287 286 286 286 286 286 286 286 286 286 286 286 286 286 286 286 286 286 286 287 287 287 287 287 288 289 289 289 289 290 290 290 290 290 290 290 290 289 288 287 286 286 285 284 284 283 283 283 282 282 281 281 280 280 280 280 280 280 279 279 278 278 277 277 276 276 276 275 275 275 274 274 273 273 273 273 272 272 272 272 272
288 288 287 287 286 286 285 285 285 285 285 285 285 285 285 285 285 285 285 285 285 285 285 286 286 286 287 287 288 289 289 290 290 290 289 289 288 288 288 288 287 287 286 285 285 284 284 283 283 282 281 281 280 280 280 279 279 279 279 279 278 278 277 277 276 276 275 275 274 274 274 274 274 273 273 272 272 271 271 271 271 271 271 271 271
287 287 286 286 286 285 285 284 284 284 284 284 285 284 284 284 284 284 284 284 284 284 285 285 285 286 287 288 288 288 288 288 287 287 286 286 286 286 286 285 285 284 284 283 283 282 282 281 281 280 280 280 279 279 279 279 278 278 277 277 277 276 276 275 275 275 274 274 273 273 273 273 272 272 271 270 270 270 270 270 270 270 270 270 270
286 286 285 285 285 284 284 284 284 284 283 284 284 284 284 284 284 284 284 284 284 284 285 285 285 286 286 287 286 286 285 285 285 285 285 284 284 284 283 283 282 282 282 281 281 281 280 280 279 279 279 278 278 278 277 277 277 276 276 276 275 275 275 275 274 274 274 273 273 272 272 271 270 270 269 269 269 269 269 269 269 269 269 269 268
285 285 284 284 284 283 282 282 283 283 282 283 283 283 282 283 283 283 283 283 284 284 284 284 285 285 285 285 285 284 284 283 283 283 283 283 282 282 281 281 281 281 280 280 280 279 279 278 278 278 277 277 277 276 276 276 276 275 275 275 275 275 274 274 273 273 272 272 271 270 270 269 269 269 268 268 268 268 268 268 268 268 268 268 267
284 284 283 283 283 282 282 282 282 282 282 282 282 282 282 282 282 282 282 282 283 283 283 284 284 284 283 283 283 282 282 282 282 282 281 281 281 280 280 279 279 279 278 278 278 277 277 277 277 276 276 276 275 275 275 275 274 274 274 273 273 273 272 271 271 270 270 270 269 269 269 268 268 268 268 267 267 267 267 267 267 267 267 267 267
282 282 282 282 281 281 281 281 281 280 281 281 281 281 281 281 281 281 281 281 282 282 282 282 282 281 281 281 281 280 280 280 279 279 279 278 278 278 277 277 276 276 276 276 275 275 275 275 275 275 274 274 274 274 273 273 273 272 272 271 271 270 269 269 268 268 268 268 268 268 268 267 267 267 267 267 267 267 267 267 267 267 266 266 266
281 281 280 280 279 279 279 279 278 278 278 278 278 278 279 279 279 279 279 279 279 279 279 279 279 278 278 278 278 277 277 277 277 276 276 276 275 275 275 275 274 274 274 274 274 274 274 273 273 273 273 272 272 272 272 271 271 271 270 270 269 268 268 267 267 266 267 267 267 267 267 267 267 267 266 266 266 266 266 266 266 266 266 265 265
Wind_Speed
57 56 54 53 52 51 51 51 52 53 55 55 56 55 54 52 51 52 53 54 55 54 53 53 53 53 53 51 49 48 47 44 41 41 40 40 38 36 35 36 36 35 34 33 32 31 30 31 32 31 31 30 28 26 23 22 20 18 15 14 12 13 13 13 14 15 13 10 9 8 6 5 5 4 4 4 5 7 7 9 11 13 15 16 17
58 56 54 54 53 51 50 51 51 52 53 54 55 54 52 50 49 49 50 51 53 53 52 52 52 53 53 53 52 52 48 44 42 42 42 41 39 37 37 37 36 35 34 34 34 34 34 34 34 33 31 29 27 25 23 21 19 17 15 14 13 12 12 12 12 13 12 9 7 6 5 4 2 2 3 4 6 8 10 12 14 16 18 19 21
58 56 54 54 54 51 50 51 52 52 52 52 53 53 52 51 50 49 49 48 47 48 48 50 50 51 52 53 54 52 47 44 44 44 43 43 42 40 38 37 37 37 37 37 37 37 37 36 35 34 31 29 27 25 23 21 19 17 16 14 13 11 11 11 11 11 10 8 7 5 4 3 1 2 4 6 8 9 11 13 15 16 18 20 22
58 56 54 54 53 52 51 51 52 52 52 52 53 53 52 51 50 49 47 46 45 45 46 46 47 47 49 51 51 49 46 46 46 46 46 45 43 40 38 37 38 39 39 39 39 38 38 37 36 34 32 30 28 26 24 22 20 18 16 15 13 12 11 10 10 10 8 7 6 5 4 3 2 2 4 6 8 9 10 12 13 15 16 18 19
57 56 55 55 54 54 53 52 52 52 51 52 52 52 51 50 49 47 46 46 45 45 44 44 45 46 48 50 50 49 48 48 49 49 48 45 42 40 39 39 40 40 39 39 39 39 38 37 35 33 32 30 27 25 23 22 20 19 17 16 15 13 12 11 11 9 8 6 5 4 4 2 1 2 4 5 7 8 9 10 12 13 14 16 18
57 56 55 55 55 55 55 54 54 53 52 52 51 51 51 50 49 48 47 46 45 44 44 44 45 45 47 49 50 50 49 50 50 49 47 44 42 40 40 41 41 40 40 40 40 39 36 34 33 32 30 27 25 24 23 22 21 20 18 16 14 12 12 11 10 9 8 7 6 5 3 1 1 3 4 5 7 8 9 10 12 14 15 16 17
56 57 56 55 55 56 56 55 55 55 54 53 53 53 52 51 49 48 47 45 44 43 44 45 46 46 46 48 49 49 49 49 49 47 46 44 43 43 43 43 43 42 41 40 38 36 34 32 31 29 27 25 24 23 23 22 21 19 16 14 12 11 11 10 9 9 8 9 8 5 3 2 1 3 5 6 7 8 9 9 11 13 16 17 18
57 57 56 55 55 56 56 56 55 55 56 56 55 55 53 51 49 48 46 45 45 45 46 47 47 46 45 46 47 48 48 48 47 47 46 45 45 45 45 45 44 43 40 38 35 33 32 31 29 27 25 24 23 22 21 20 19 18 16 14 12 12 11 11 10 10 9 8 7 5 3 3 3 4 5 6 6 8 10 12 13 15 16 18 20
58 58 58 57 56 56 56 56 55 56 57 58 58 57 54 51 49 48 47 46 45 46 46 47 47 47 46 46 47 48 48 48 48 47 47 46 46 47 46 46 44 42 39 37 35 33 32 31 29 27 25 24 23 22 20 18 17 17 16 16 15 14 13 13 11 10 9 7 5 4 4 4 5 6 7 7 6 8 11 14 16 17 18 19 19
57 59 59 58 57 56 56 56 56 57 58 59 59 58 54 52 50 49 48 47 47 47 46 46 47 47 48 48 48 48 48 49 48 48 47 47 47 47 46 45 43 41 39 38 36 34 32 30 29 28 27 26 24 23 21 20 19 17 17 17 17 17 16 14 12 10 8 6 4 4 5 6 7 7 8 8 9 10 13 15 16 17 19 20 19
54 57 59 59 57 56 57 57 57 58 58 59 59 58 55 52 50 49 48 47 48 47 46 46 47 47 48 48 49 49 49 49 48 48 47 47 46 46 45 44 42 41 39 38 37 35 33 32 31 30 28 26 25 24 23 23 22 21 21 21 20 19 17 15 13 10 7 5 5 6 6 8 9 9 9 10 12 14 15 17 18 19 20 21 21
53 56 57 57 57 56 57 58 58 57 57 58 59 57 55 53 51 49 49 50 50 49 47 47 48 47 47 47 48 49 49 49 48 48 47 47 46 45 44 43 42 41 40 39 37 36 35 34 32 30 28 26 26 26 25 25 25 24 24 24 23 21 19 16 13 9 7 6 7 8 8 9 10 10 11 12 14 16 18 19 19 21 21 22 22
55 56 56 55 57 57 57 58 58 57 57 59 59 57 56 54 52 51 52 52 52 51 49 48 47 47 47 47 48 48 48 48 48 48 47 47 46 44 43 42 41 41 40 38 36 36 35 34 32 30 29 28 28 28 28 28 28 27 27 26 24 21 18 16 13 10 8 8 9 10 10 10 10 11 13 15 16 18 19 20 20 21 22 22 22
55 57 58 57 57 58 58 58 58 58 57 59 60 58 57 55 53 53 54 54 54 52 51 49 48 47 48 48 48 48 48 48 48 47 47 45 44 43 41 40 40 40 39 38 37 36 35 33 33 32 31 32 32 32 31 31 31 30 29 26 23 20 18 15 13 12 10 10 11 11 12 12 13 14 15 16 17 18 19 20 20 21 22 21 21
54 57 60 60 59 59 59 59 59 58 58 59 59 58 57 55 55 55 56 55 54 53 52 51 49 48 49 49 48 48 47 47 47 47 46 44 43 42 41 41 41 40 39 38 37 36 35 34 33 32 32 34 34 34 34 33 32 31 28 25 22 20 18 16 14 12 12 11 12 13 14 16 16 16 16 16 17 18 20 21 21 22 23 22 22
55 56 59 62 62 62 62 61 60 58 58 59 59 58 57 57 57 57 57 56 54 53 51 50 49 49 50 49 49 48 47 47 47 46 45 44 43 43 42 42 41 40 39 39 37 36 35 34 33 32 33 34 35 35 35 34 33 31 27 24 22 20 18 16 13 12 12 12 14 15 17 18 18 17 17 17 18 19 21 22 22 22 23 24 24
55 56 59 62 64 65 63 62 61 60 60 60 60 59 58 58 59 59 59 57 55 53 52 50 50 50 51 51 50 48 47 47 46 46 46 45 45 45 44 43 42 41 40 39 38 38 36 35 34 34 35 36 36 37 37 37 35 31 28 25 23 21 18 15 13 13 13 14 15 18 19 19 19 19 19 19 19 19 21 22 21 20 22 23 24
56 58 59 62 65 65 64 63 61 60 61 61 61 60 59 60 61 61 61 59 57 55 53 51 51 51 51 50 49 47 46 46 46 47 46 46 46 47 46 45 44 42 41 41 40 39 37 36 36 37 38 37 38 39 39 39 36 32 29 26 24 21 18 16 14 14 15 16 18 19 20 20 20 20 20 20 20 20 21 21 20 19 20 22 22
56 57 56 58 63 63 62 63 63 62 62 62 61 61 61 61 62 62 61 60 58 56 54 53 53 52 51 49 47 46 46 46 47 47 48 48 48 48 47 46 45 44 44 44 43 41 39 39 40 40 40 39 40 40 40 38 36 32 29 27 25 22 19 17 17 17 17 18 19 20 20 20 20 20 20 20 20 21 21 21 20 19 21 22 21
56 57 53 53 58 60 60 62 63 63 63 62 61 61 61 62 63 62 61 59 57 56 56 55 54 52 51 49 48 48 47 47 48 49 49 49 49 49 48 48 47 47 47 46 45 44 44 44 44 43 41 41 41 40 39 37 35 32 29 28 24 21 20 20 19 19 19 20 20 20 20 20 20 20 20 20 21 22 22 21 21 20 22 23 21
55 56 52 51 56 60 61 62 64 65 63 60 60 60 60 61 62 62 61 58 56 56 56 55 54 52 52 51 50 49 49 49 49 50 50 50 50 49 49 48 48 48 49 48 47 46 46 47 46 44 43 42 41 39 37 36 33 31 30 26 22 20 21 21 20 20 21 21 20 20 20 20 19 19 19 20 21 22 23 22 22 22 23 24 24
50 51 50 51 55 58 61 62 63 63 62 60 59 59 60 61 61 61 60 58 56 56 57 56 55 54 53 52 51 50 50 50 50 51 51 51 50 49 49 48 48 48 49 49 48 48 48 47 45 43 42 42 40 38 36 33 32 31 28 24 21 21 21 21 20 21 21 21 21 21 20 19 19 19 19 21 21 23 23 23 23 23 24 25 25
43 47 47 49 54 57 60 61 61 62 62 60 60 59 60 60 60 60 59 58 57 57 58 58 57 56 55 53 52 51 51 51 51 51 51 51 51 50 49 48 48 48 49 49 48 48 46 44 42 41 41 41 39 37 34 31 30 29 27 24 23 22 21 21 21 22 22 21 22 21 20 19 19 19 19 20 21 22 23 23 24 25 26 26 27
38 46 46 47 51 55 58 59 60 62 62 61 59 58 59 60 60 59 59 58 58 59 59 59 59 58 56 54 53 52 52 53 52 52 52 51 50 50 49 48 47 48 48 48 46 45 44 41 40 39 39 38 36 33 31 30 28 27 26 25 24 23 23 23 22 22 22 22 21 21 19 19 19 19 19 19 20 21 22 23 24 25 26 27 27
35 43 46 46 49 53 55 58 60 61 62 63 62 59 59 61 62 61 60 60 60 61 61 62 61 59 57 55 54 54 54 54 54 53 52 51 49 49 48 47 47 47 47 46 45 43 40 37 36 37 37 36 34 32 30 30 28 27 27 27 25 25 25 24 22 22 22 21 20 19 18 18 18 18 17 18 19 20 21 22 23 24 25 26 27
34 39 46 47 49 51 54 57 59 60 61 63 64 63 62 63 64 63 62 61 62 63 64 64 62 61 58 55 55 55 55 55 55 54 52 51 50 48 47 46 46 46 44 44 42 39 36 34 36 38 37 35 34 32 32 31 29 29 29 28 27 26 26 24 23 22 21 19 18 18 17 18 18 17 17 17 18 19 20 22 23 23 24 26 28
32 36 43 47 49 51 54 56 58 60 61 62 62 63 64 65 65 65 64 63 63 64 64 64 64 62 60 57 56 56 56 56 56 55 54 53 51 49 47 47 47 46 45 43 40 37 35 35 37 38 37 36 35 34 33 32 31 31 30 29 28 27 26 24 22 21 19 18 17 17 17 18 17 17 17 17 18 18 19 21 22 23 24 26 29
29 33 40 44 47 51 54 56 58 60 62 63 62 63 65 65 66 68 68 67 66 65 65 65 65 64 61 58 57 57 57 58 59 58 57 55 53 51 50 50 49 48 46 43 40 37 37 37 39 40 40 39 38 37 35 34 32 31 30 29 28 27 26 24 22 21 20 18 17 18 18 18 18 17 18 18 18 19 20 21 22 23 24 27 29
26 31 38 42 46 49 52 55 58 60 63 65 64 65 66 67 69 69 69 68 69 68 67 66 66 65 63 60 59 60 61 62 62 60 58 57 56 55 53 52 51 49 46 43 41 40 39 41 43 43 42 41 40 39 37 35 33 32 31 29 29 28 26 25 24 22 20 19 19 19 19 19 19 19 19 20 20 21 22 23 24 25 26 28 30
24 29 35 41 44 47 50 54 58 60 62 64 64 61 60 63 67 68 67 67 68 69 69 67 66 66 65 63 62 62 62 63 62 61 60 59 57 55 53 51 50 48 46 43 42 42 43 44 45 44 43 43 42 39 37 36 35 34 32 31 30 29 27 26 24 21 20 20 20 20 20 21 21 21 22 23 23 24 25 26 26 27 28 29 31
24 28 34 39 43 46 50 53 56 58 60 62 62 58 55 55 58 60 61 62 65 67 67 67 68 67 66 64 62 61 61 61 61 61 60 59 56 54 52 51 50 49 46 44 43 45 46 46 46 45 44 43 41 38 37 37 36 34 32 31 30 29 28 26 24 22 22 22 22 22 23 23 23 24 24 25 26 27 28 28 29 29 30 31 32
24 28 33 38 42 45 49 53 55 56 57 58 58 57 53 51 53 53 53 54 59 63 63 63 64 66 65 64 63 62 62 63 62 61 59 58 56 54 52 50 48 47 45 45 46 47 47 46 46 45 44 41 39 38 37 37 36 34 32 31 31 30 28 26 24 23 24 24 25 25 25 25 26 26 27 28 29 30 30 30 30 30 31 32 33
23 28 33 38 42 45 47 50 52 53 53 54 55 55 54 53 54 54 50 48 51 56 58 58 60 61 62 63 63 63 62 62 61 60 58 56 55 54 51 49 47 45 45 46 47 47 46 46 46 44 41 39 38 37 37 36 35 33 31 31 30 28 27 26 26 26 27 27 28 28 28 28 28 28 29 30 30 31 31 31 31 31 32 33 33
21 28 33 37 41 44 45 47 49 50 51 52 52 53 55 55 55 54 51 48 47 50 53 55 56 57 59 60 61 62 63 62 61 59 57 55 54 51 49 46 44 44 44 45 46 46 45 44 42 39 37 37 37 37 36 35 33 31 30 29 29 28 28 28 29 29 30 30 31 31 30 30 30 30 31 31 31 31 32 32 31 32 32 32 32
19 26 31 35 38 41 43 45 46 47 48 49 49 50 51 52 52 53 53 52 51 51 52 53 54 55 57 59 60 62 62 61 59 57 55 53 51 49 47 46 46 46 45 44 43 42 41 39 37 35 35 36 35 35 35 33 31 30 29 29 29 30 30 31 32 32 33 33 32 32 31 31 31 32 32 32 32 32 32 32 32 32 31 31 31
18 25 29 32 34 37 39 41 42 43 45 46 47 47 48 49 50 50 50 50 49 48 49 50 50 49 50 54 58 60 59 58 57 54 50 49 49 49 49 50 49 47 46 44 42 40 37 35 34 34 34 34 34 34 34 33 31 29 29 29 30 31 32 32 32 33 33 32 32 31 31 32 32 32 32 32 32 32 32 32 32 32 31 31 31
17 24 27 29 31 32 34 35 37 38 39 41 42 44 45 46 46 46 45 45 45 46 47 49 48 46 45 48 53 55 55 53 52 47 43 44 48 50 50 49 47 45 45 44 42 39 36 34 34 34 34 35 35 35 34 33 32 31 30 31 31 31 31 31 30 31 31 31 31 31 32 32 32 31 31 32 32 32 32 32 31 31 31 30 30
16 21 24 26 28 29 30 31 32 33 34 37 38 41 42 43 44 45 44 43 45 47 48 48 49 50 50 49 49 50 49 46 43 40 40 44 48 49 48 46 44 43 42 41 39 37 36 36 36 36 37 37 37 36 35 34 34 33 31 31 30 30 29 29 30 30 31 31 32 32 32 32 32 31 31 32 33 33 32 32 31 31 31 30 31
14 17 20 22 24 25 26 27 28 29 31 33 35 37 39 41 42 43 44 44 44 46 47 47 48 50 52 51 49 48 46 44 42 43 44 45 47 47 45 43 41 40 40 39 38 37 37 37 37 37 38 38 38 38 37 36 34 32 30 30 30 30 30 31 31 31 32 32 32 32 32 32 32 31 31 33 33 33 32 31 31 31 31 31 31
12 14 16 18 20 21 21 22 23 25 27 29 31 33 35 37 39 41 42 43 43 44 45 46 46 48 50 51 52 51 49 47 47 47 47 46 44 43 41 40 40 40 40 39 39 38 37 36 36 37 38 38 38 37 36 34 32 31 30 31 31 32 32 32 33 33 32 33 33 33 33 33 32 32 33 33 33 32 31 31 31 31 31 32 32
10 12 13 14 16 17 17 18 20 22 23 25 27 29 31 33 35 36 38 39 40 40 41 42 43 44 45 46 48 49 49 49 48 47 45 43 41 39 39 39 39 40 40 39 38 36 35 35 35 36 37 37 36 35 33 32 32 32 33 34 34 34 34 34 34 34 34 34 34 34 34 33 32 32 33 32 31 31 31 31 31 31 31 32 32
10 11 12 12 12 13 14 16 18 19 21 22 24 26 27 29 31 32 34 35 36 37 38 38 39 40 40 41 43 45 45 45 45 43 40 39 38 38 39 39 39 39 38 37 36 34 34 34 35 36 36 36 35 34 34 34 34 34 35 35 35 36 36 35 35 35 34 34 34 34 33 32 31 31 31 31 30 31 31 31 32 32 33 33 32
10 11 11 12 12 11 12 14 15 16 18 19 21 22 24 26 27 29 30 31 33 34 36 36 36 37 38 39 39 39 39 39 38 37 37 37 37 38 38 37 36 36 35 34 34 33 34 34 35 35 35 35 34 34 33 34 34 35 36 35 35 35 35 35 35 34 33 33 33 32 31 30 30 29 30 30 30 31 31 32 33 33 33 33 32
12 12 12 13 14 13 13 12 12 14 15 16 18 19 20 22 23 24 26 28 29 31 33 34 36 37 37 36 35 34 33 33 33 34 35 36 36 36 35 34 33 33 32 32 32 33 33 33 33 33 33 33 33 32 33 33 34 34 35 34 34 34 34 34 34 33 31 31 31 30 29 29 29 29 30 30 30 31 32 33 33 33 33 33 32
15 14 14 15 15 15 14 13 13 13 13 14 15 16 17 18 20 21 23 25 27 29 31 32 33 34 34 33 32 31 31 31 32 33 33 33 32 31 30 30 30 30 31 31 32 32 32 32 32 32 32 32 32 32 32 33 33 34 33 33 33 33 33 32 32 30 29 28 28 28 29 29 30 30 31 31 31 31 32 33 33 33 33 33 32
18 17 17 16 16 15 15 14 13 13 13 13 15 16 17 18 19 21 22 24 26 28 29 30 29 30 30 30 29 29 28 28 28 28 27 26 26 26 26 27 28 29 30 30 31 31 31 31 32 32 32 32 33 33 33 33 33 33 33 33 32 32 31 30 29 29 28 28 29 29 30 31 31 31 31 30 30 31 31 32 32 33 32 32 32
20 20 19 18 19 19 18 16 15 15 15 16 17 18 20 21 22 23 24 25 27 28 28 27 26 25 25 24 23 22 21 21 21 20 20 21 21 22 24 25 25 26 27 28 29 29 30 30 31 31 31 32 32 32 32 32 32 32 32 31 31 30 30 29 29 29 29 30 30 30 30 30 30 29 29 29 29 30 31 31 32 32 31 31 31
22 22 22 21 21 22 21 20 19 19 19 20 20 21 22 23 24 24 24 24 24 23 22 21 20 18 18 17 16 15 15 15 15 16 17 18 18 20 21 22 23 24 25 26 27 27 28 28 29 29 29 30 30 30 30 30 30 30 30 30 29 29 29 29 29 30 29 29 28 28 28 28 28 29 29 29 30 31 31 31 31 31 31 31 30
25 25 25 24 24 25 24 22 22 21 21 20 20 20 20 20 19 19 18 17 16 15 14 13 13 12 11 11 11 11 11 12 13 14 15 16 17 18 19 20 21 22 23 24 24 25 25 26 26 26 27 27 27 28 28 28 28 28 28 29 29 29 28 27 27 26 25 25 26 26 27 28 28 29 29 29 29 29 30 30 30 31 31 32 32
28 27 27 26 26 25 24 23 23 22 20 19 18 18 17 16 15 14 13 12 11 10 9 8 8 8 8 8 8 9 10 10 11 12 13 14 15 16 17 18 19 19 20 21 21 22 22 23 24 24 25 25 26 26 27 27 27 27 27 26 26 25 24 23 22 21 20 21 22 23 24 26 27 28 28 29 29 30 30 31 32 32 33 34 34
28 27 27 26 25 24 23 23 22 21 20 19 18 17 16 15 14 13 12 10 9 8 7 6 5 5 5 5 6 7 8 9 10 10 11 12 14 15 15 16 17 18 19 19 20 21 21 22 22 23 24 24 25 25 26 26 25 25 25 25 24 23 21 19 18 18 18 18 18 19 20 21 23 24 26 27 29 30 31 31 32 32 32 33 33
Wind_Direction
215 216 215 213 212 213 212 211 210 209 209 211 212 215 217 217 217 217 218 220 221 223 224 226 226 225 225 224 221 223 226 224 218 214 214 210 207 206 206 208 210 208 204 200 198 197 193 185 183 185 186 185 184 182 180 177 174 172 167 160 154 147 141 138 138 138 135 130 122 111 99 83 69 60 47 36 33 29 20 16 15 12 8 5 3
217 217 215 213 213 215 214 211 209 209 209 210 212 213 215 216 216 216 216 217 219 221 223 225 227 226 225 223 221 224 224 218 211 210 209 207 206 205 206 207 207 204 199 195 191 188 184 182 183 184 184 184 183 181 180 177 174 171 168 164 159 151 143 138 135 133 134 132 119 105 98 89 74 67 55 38 31 26 19 17 14 9 6 4 2
218 218 216 214 214 214 214 211 209 208 209 210 211 211 212 214 215 216 217 217 219 221 222 223 224 223 222 221 222 222 217 209 206 205 205 206 205 203 204 206 204 198 193 188 185 182 181 181 182 183 182 181 182 181 179 176 174 172 169 165 160 154 150 147 139 131 132 134 127 118 114 118 114 58 43 30 23 18 13 11 9 4 1 0 358
217 218 216 214 213 213 214 212 210 209 210 210 210 211 212 213 215 216 217 218 219 219 218 217 216 216 217 217 217 214 207 203 203 203 204 204 203 203 204 204 200 194 189 185 182 180 180 181 181 181 181 180 180 179 176 174 173 173 171 166 164 163 159 153 147 138 134 135 134 134 136 135 118 52 34 21 11 6 5 5 1 356 354 354 351
217 217 216 213 212 212 213 213 211 211 210 210 210 210 211 212 213 214 215 215 214 211 208 208 209 210 211 209 207 204 202 201 201 200 201 201 201 203 202 199 195 191 187 184 182 182 182 182 182 181 181 180 177 176 175 173 173 173 173 172 169 167 161 154 149 142 137 136 138 139 135 123 74 23 12 5 357 351 353 357 354 349 348 347 344
218 217 216 214 213 213 213 213 213 212 211 210 208 208 209 211 211 212 211 209 206 204 202 203 204 205 204 202 200 200 200 200 199 198 198 198 199 199 196 194 192 189 186 186 185 185 184 183 182 181 181 179 177 176 175 174 174 174 175 174 170 164 158 152 148 142 140 145 150 152 148 134 24 344 337 339 340 339 346 351 348 341 337 337 337
218 218 217 215 215 215 215 215 214 212 212 211 209 208 209 210 210 208 207 204 202 201 200 200 200 200 199 197 196 197 197 197 197 197 198 197 196 194 191 190 189 188 187 187 186 186 185 184 182 181 180 178 177 177 176 175 174 173 174 174 170 165 160 157 155 153 155 156 156 160 177 195 270 311 312 319 327 331 336 339 336 329 326 328 332
220 219 217 216 216 217 217 216 215 213 212 211 211 210 210 210 209 206 204 203 201 199 197 195 194 194 194 194 193 194 195 196 198 199 198 195 192 189 188 188 188 187 187 186 186 185 184 184 182 181 180 178 177 178 178 177 176 174 175 175 174 174 171 171 172 171 172 171 167 175 207 237 264 285 294 306 320 325 325 323 322 321 322 326 331
223 220 219 218 218 219 218 217 216 214 212 211 211 211 210 208 207 206 205 203 200 197 194 191 190 191 192 193 194 195 197 198 198 197 194 191 189 188 188 188 187 187 185 184 184 184 183 183 182 181 180 178 178 177 176 178 182 184 185 182 180 182 183 184 186 186 185 185 186 199 230 258 274 284 292 303 311 312 312 314 317 320 320 322 329
227 223 221 221 220 220 218 217 216 215 212 212 211 210 209 208 207 207 206 203 198 194 192 190 190 190 191 193 195 197 198 198 196 193 190 189 188 189 188 188 187 186 185 184 183 183 183 183 183 182 181 180 179 179 180 182 186 190 191 188 186 187 189 190 191 191 191 194 208 231 255 271 279 283 288 296 302 303 306 310 313 314 314 317 325
230 226 224 223 221 220 219 217 216 215 213 211 210 209 208 208 207 206 204 201 196 193 192 191 191 191 192 194 195 196 196 195 193 191 190 190 190 190 189 188 188 188 187 185 183 183 183 183 183 183 183 183 184 187 190 191 192 193 191 190 191 192 191 191 190 189 191 204 228 242 257 271 277 282 287 294 300 301 304 308 310 311 313 317 324
234 231 227 223 221 220 219 217 216 215 213 210 209 209 208 208 207 205 202 197 194 193 193 193 192 192 193 194 194 194 194 192 191 191 191 192 192 192 190 190 190 189 188 187 186 185 184 183 184 186 187 190 194 196 196 195 196 197 194 193 194 194 192 189 187 185 190 211 236 247 257 268 275 283 288 292 295 298 301 305 309 311 314 318 323
237 236 231 225 222 221 220 218 217 215 213 210 209 209 208 209 207 203 199 195 194 194 194 195 194 193 192 192 192 192 192 191 191 192 192 193 193 193 194 193 192 191 189 189 189 188 187 186 187 190 193 197 200 201 200 198 197 196 196 197 197 194 191 188 185 186 195 216 238 252 261 267 272 278 282 284 288 293 297 302 307 309 311 314 318
239 238 234 229 225 222 220 220 218 216 213 210 208 208 209 209 207 203 199 197 196 195 195 196 196 194 192 191 191 191 192 192 192 193 193 194 194 196 197 196 195 193 192 191 191 190 190 192 194 196 198 201 203 202 200 200 199 198 198 199 196 193 192 190 190 195 206 222 241 256 265 269 270 273 277 282 287 292 297 301 304 305 306 309 312
242 240 236 231 228 224 222 221 218 215 212 210 208 209 209 208 206 203 201 199 198 197 196 196 196 194 193 191 191 192 193 193 193 194 194 195 195 198 200 199 198 196 195 194 193 192 193 195 198 200 203 204 203 202 201 201 200 199 199 198 196 195 195 195 197 203 213 229 245 257 265 269 272 276 280 284 289 294 298 300 302 303 303 304 308
242 240 236 232 229 226 223 222 218 215 212 210 209 209 208 206 204 202 202 201 200 200 199 198 196 194 193 192 193 193 194 194 195 195 196 197 198 199 200 201 200 198 197 195 193 193 194 196 199 203 206 206 204 203 202 201 201 200 199 198 198 199 200 199 204 213 224 237 250 258 264 269 274 279 283 286 290 294 295 297 300 301 300 301 305
239 237 235 233 230 227 225 222 218 215 212 211 210 209 207 205 203 201 201 201 201 201 200 198 196 195 194 194 195 194 194 195 196 197 198 199 200 200 201 201 202 201 199 196 194 195 196 199 202 205 206 206 205 204 201 201 200 200 199 200 201 202 203 203 209 221 233 243 252 259 264 269 274 279 282 286 291 292 292 294 296 295 294 296 301
238 235 234 233 229 227 225 221 218 216 214 213 212 210 207 204 202 201 200 199 199 199 199 198 196 197 197 197 197 196 196 196 198 200 201 201 201 201 200 201 201 201 199 197 196 197 198 200 203 207 207 206 204 203 202 201 200 199 199 201 202 204 205 206 212 224 236 245 252 259 265 270 274 278 283 288 289 288 288 290 291 289 289 292 298
240 236 235 234 229 225 223 221 218 217 216 214 213 210 208 205 203 202 201 200 199 198 197 197 197 198 199 199 199 199 198 199 200 201 202 202 202 201 201 200 201 200 199 198 197 197 198 200 203 207 207 205 203 203 203 201 200 199 200 202 203 205 206 209 215 225 234 244 253 259 264 269 273 278 283 286 285 284 284 286 287 286 286 289 293
243 239 238 236 230 224 223 222 221 219 216 214 212 210 208 206 204 203 203 202 201 199 198 198 198 198 199 199 200 201 201 201 202 203 203 202 202 201 201 201 201 200 199 199 198 198 198 201 205 206 206 205 204 205 204 202 201 201 203 205 207 208 210 213 217 225 234 243 252 258 262 267 271 276 279 281 280 281 282 283 282 281 281 284 285
245 239 237 236 231 226 223 222 223 221 217 214 212 210 209 208 205 204 204 203 202 201 200 199 199 199 200 200 202 203 203 202 202 203 203 203 202 203 204 204 203 201 201 201 201 201 202 204 206 206 204 204 205 205 205 204 203 205 207 209 210 212 216 218 221 227 236 243 250 256 260 265 270 274 277 279 279 280 281 281 280 278 278 280 282
247 238 234 233 230 225 222 220 220 218 215 213 211 210 210 209 208 207 206 204 203 203 202 200 200 200 201 202 203 204 204 204 204 203 203 203 203 205 206 207 206 205 204 204 204 206 207 208 208 207 205 205 206 206 206 206 206 208 211 211 211 215 219 222 225 231 238 244 250 255 260 264 269 273 275 277 279 280 281 281 281 280 279 279 279
256 243 237 232 227 223 221 218 216 214 212 212 211 210 209 209 209 208 208 206 204 204 204 202 201 201 201 203 204 205 205 204 204 204 203 203 204 206 208 208 208 208 208 208 208 209 210 211 211 210 209 208 207 206 207 208 209 211 212 212 214 217 220 224 228 234 240 245 250 255 260 264 268 271 274 276 278 279 280 281 281 280 279 279 278
264 247 239 232 225 222 219 217 213 211 211 211 210 209 209 209 209 209 209 207 205 205 205 204 202 202 203 203 205 205 205 204 204 204 205 206 206 208 209 209 210 211 211 212 213 213 214 214 214 214 213 211 210 208 209 210 212 213 215 216 217 220 223 227 231 235 241 246 252 258 262 265 268 271 274 275 276 277 278 279 280 279 279 279 278
268 248 239 232 225 221 217 214 212 209 209 210 210 210 209 208 208 207 207 207 206 206 205 205 204 204 203 204 205 205 205 204 204 204 206 209 209 209 210 211 212 213 213 214 216 216 217 218 218 217 216 213 210 210 210 212 214 215 217 219 220 223 227 230 233 237 243 248 254 260 263 265 267 270 271 272 273 275 277 277 278 278 278 278 277
270 248 238 232 226 221 216 212 209 206 205 207 210 212 212 210 207 206 206 206 206 206 206 205 205 205 205 205 205 205 205 205 205 205 207 209 210 210 211 213 214 214 215 216 217 217 219 221 220 218 216 213 212 212 212 213 215 217 219 221 223 226 230 233 236 241 246 250 255 259 261 263 265 266 267 269 271 274 276 277 277 278 280 280 280
268 246 235 229 224 220 215 210 206 203 203 204 205 208 212 211 208 207 207 205 204 205 206 206 205 205 206 206 206 206 205 204 205 206 207 209 210 210 211 212 213 213 213 214 214 214 218 221 220 217 215 214 214 215 215 215 216 218 220 222 225 228 231 234 238 242 245 249 251 253 255 258 261 263 266 268 271 273 275 277 279 281 283 284 284
261 242 231 224 219 217 214 210 205 202 203 204 203 204 209 211 210 210 211 210 206 204 204 206 206 206 206 206 206 206 206 206 207 207 207 208 209 210 210 211 211 211 211 212 212 213 217 219 217 215 214 214 214 214 214 215 217 219 221 224 226 229 231 233 235 238 241 242 244 247 253 257 260 263 267 269 272 274 275 278 281 283 284 284 285
254 236 227 221 216 213 210 208 205 203 203 204 205 206 209 212 213 214 214 216 216 213 210 209 210 210 209 209 208 207 206 207 208 208 208 209 210 210 211 211 210 210 212 213 213 213 215 216 214 213 213 215 215 215 215 216 218 220 222 224 227 229 231 234 236 238 239 240 243 248 254 256 258 261 265 269 271 273 275 278 281 281 281 282 284
249 232 224 218 214 210 206 204 203 202 202 203 204 205 207 211 213 213 215 219 221 222 222 221 218 215 213 213 214 213 212 212 210 208 209 210 211 211 212 212 212 213 215 214 213 214 215 215 214 214 215 216 217 217 218 219 221 223 224 226 228 230 233 236 237 237 237 239 244 249 252 254 257 261 265 268 271 272 274 277 278 278 279 281 282
244 229 221 216 212 208 204 201 199 200 201 202 203 203 204 205 206 208 213 217 218 220 223 226 226 222 219 217 217 216 215 215 212 210 210 211 211 212 213 214 215 216 216 214 214 216 216 215 215 216 217 218 219 220 222 223 225 226 226 227 230 233 236 238 237 236 237 240 245 248 250 253 257 261 264 267 269 271 272 274 275 276 278 280 281
238 227 219 215 212 208 204 200 198 199 200 201 202 203 202 202 201 203 207 211 212 212 214 217 219 220 221 221 220 217 215 215 213 211 210 211 211 212 214 215 216 217 216 215 216 218 218 219 220 220 219 220 222 224 225 226 228 228 228 230 233 236 238 240 239 238 239 242 245 247 251 255 258 261 264 266 268 269 271 272 273 275 277 279 281
229 224 219 214 210 207 204 202 201 201 201 202 202 202 202 204 204 204 207 209 209 209 210 211 213 214 214 216 218 218 218 217 215 212 211 211 212 213 214 216 217 216 216 216 217 219 221 223 224 224 223 225 227 227 227 229 230 230 231 233 236 238 239 240 240 239 240 243 245 248 252 256 259 261 264 265 267 268 269 270 272 274 276 278 280
222 221 219 214 210 207 206 205 205 205 205 204 203 203 204 206 207 206 206 207 207 207 209 211 213 213 211 210 212 214 216 217 215 212 211 212 212 213 214 215 215 216 217 219 221 223 224 225 226 227 229 231 232 230 230 232 232 233 234 235 235 236 237 238 238 239 241 243 246 249 253 256 259 262 264 266 267 267 269 271 272 274 275 277 278
216 218 218 217 215 212 211 211 210 209 208 207 206 205 205 206 206 206 206 206 205 204 206 208 211 212 211 210 210 211 214 215 213 211 212 212 211 212 213 212 210 211 215 220 224 227 228 229 232 234 236 236 235 234 235 236 236 236 236 236 237 237 237 238 239 240 242 244 247 251 254 257 260 262 264 265 267 268 270 272 273 274 275 275 276
212 215 216 217 218 217 216 215 215 214 213 211 210 209 207 206 206 205 205 205 203 202 202 204 206 209 210 210 209 210 211 212 210 210 213 213 212 211 210 208 207 210 215 219 222 225 228 232 235 238 239 239 239 239 240 240 239 239 239 239 240 240 241 241 242 244 246 249 251 254 257 259 261 263 264 266 267 268 270 271 272 273 274 274 274
212 214 214 215 217 217 217 217 216 216 215 213 211 210 208 207 206 204 203 202 202 201 201 201 201 201 203 207 209 208 208 208 208 211 216 216 213 212 211 210 211 214 218 220 222 223 226 231 235 237 239 241 242 243 244 243 243 243 242 242 243 244 245 246 248 250 252 254 256 258 259 261 263 264 265 266 267 268 269 270 271 272 272 271 271
209 211 211 212 213 214 216 216 215 214 213 212 211 209 207 206 205 203 201 200 200 201 201 200 200 199 198 201 204 205 205 204 205 209 212 212 210 209 209 211 214 217 219 222 224 226 229 232 236 238 240 242 243 244 245 245 244 245 246 246 247 249 250 251 252 253 255 256 258 260 261 263 265 265 265 266 267 267 268 269 269 269 269 268 268
198 202 205 207 207 207 209 210 211 211 210 209 209 208 207 206 204 202 201 199 199 199 199 197 197 197 197 196 197 198 199 198 199 201 201 201 202 204 206 210 214 217 220 224 227 229 233 236 239 241 243 244 245 245 245 246 247 248 250 251 252 253 254 255 256 257 258 259 260 262 263 264 265 265 264 264 265 266 267 267 267 267 267 267 267
182 187 193 197 198 199 200 202 204 206 207 207 207 206 205 204 203 201 200 199 197 196 195 193 192 193 194 194 194 194 195 195 194 195 195 195 198 202 206 211 215 218 222 225 228 231 236 239 241 243 244 245 246 247 248 250 252 253 254 255 256 257 258 259 259 259 259 261 262 263 264 264 263 263 262 263 264 266 267 267 266 265 265 266 267
169 172 178 184 188 190 192 194 198 201 202 203 203 202 201 201 200 199 198 197 194 192 190 189 189 189 189 191 192 193 193 192 191 193 195 197 201 205 209 214 218 221 224 227 230 233 237 239 241 244 245 247 249 250 252 254 255 255 256 257 258 259 260 259 259 259 260 261 262 262 263 263 262 261 262 263 264 266 266 266 266 266 265 264 264
153 158 160 165 173 180 183 185 190 195 197 197 197 197 197 197 197 196 195 193 191 189 186 185 185 183 183 185 188 190 192 193 193 195 198 201 205 210 214 217 220 223 225 228 232 235 237 239 241 244 246 249 252 254 255 256 255 255 256 257 257 259 259 258 259 259 260 260 261 261 262 262 262 262 264 265 265 265 265 266 267 266 265 264 263
128 135 140 144 147 155 166 174 180 185 188 189 191 192 194 194 193 193 192 190 188 187 184 181 179 178 179 182 184 187 190 193 195 197 200 204 209 214 217 220 222 225 228 232 234 237 239 241 243 246 248 250 252 253 253 253 254 255 256 257 257 258 258 258 258 259 259 261 262 262 262 262 262 263 265 265 265 265 265 265 264 263 262 261 262
106 113 120 125 128 133 141 153 162 168 173 178 180 182 185 187 186 186 186 185 183 181 180 178 177 178 179 179 181 184 187 191 196 201 205 209 212 214 217 220 224 227 231 235 238 241 243 245 246 248 248 249 249 249 250 252 254 256 258 259 259 259 259 259 260 260 261 262 262 261 261 262 262 262 262 262 262 263 263 262 262 261 260 259 259
96 102 108 113 120 125 128 133 141 149 157 166 169 169 172 178 179 179 179 178 176 175 175 175 175 177 177 177 179 183 188 192 197 202 204 206 209 211 215 221 225 229 233 236 238 241 242 244 245 246 246 247 248 249 250 252 255 257 259 260 260 260 260 260 261 261 261 261 261 261 262 261 261 261 261 260 260 260 260 260 261 261 260 258 257
91 96 100 104 108 112 115 120 127 133 140 149 155 156 158 163 168 170 171 170 170 170 170 170 171 173 174 176 180 185 189 193 196 199 201 204 209 214 219 224 228 230 233 235 237 239 240 242 243 244 246 247 248 250 251 253 255 257 258 259 259 259 259 260 260 260 260 260 260 260 261 261 261 260 260 260 260 260 260 260 260 259 259 258 259
86 91 96 99 102 104 107 111 117 123 128 135 142 145 147 150 154 158 160 161 163 164 165 166 169 172 175 178 182 186 190 194 198 202 206 211 216 220 224 227 230 233 235 237 239 241 242 243 245 246 247 249 250 251 253 254 255 256 257 257 257 258 259 260 261 261 261 261 260 260 260 260 259 259 259 260 261 261 260 260 259 258 258 258 260
84 88 92 94 97 99 101 105 110 115 121 126 130 134 136 140 143 146 148 152 155 158 161 164 169 173 178 182 186 190 195 201 206 211 216 220 223 225 228 230 232 234 236 238 239 241 242 244 246 247 248 250 251 253 254 255 256 257 259 260 261 262 263 263 263 263 262 260 259 257 256 256 257 258 259 259 259 260 261 260 259 258 257 259 262
89 92 94 95 97 99 102 105 108 110 114 119 121 123 125 128 131 133 137 141 145 150 156 162 167 174 180 186 192 199 205 211 216 219 222 225 228 230 232 234 235 237 239 240 242 244 245 247 249 251 252 254 256 257 258 260 261 262 264 265 266 266 266 265 264 264 265 264 261 257 253 251 252 254 256 258 260 261 261 260 259 259 260 262 264
86 88 89 91 93 95 97 100 102 103 105 109 111 112 114 116 117 119 122 127 133 137 144 153 162 171 180 188 197 206 213 218 223 225 227 230 232 234 236 239 240 242 244 246 247 250 252 253 255 257 258 260 262 263 264 265 266 266 267 267 266 266 266 265 263 262 264 267 269 267 262 259 257 256 256 258 259 258 258 258 259 260 263 265 267
81 83 84 85 87 88 89 91 92 92 93 94 94 96 98 99 99 101 103 105 109 114 119 127 142 157 173 186 198 207 215 221 227 231 234 238 240 241 243 246 247 249 251 252 253 255 256 257 259 260 261 262 263 264 265 266 267 267 267 265 263 261 258 255 252 248 245 249 256 260 259 259 258 256 255 254 254 255 257 259 261 263 265 267 269